TimeEST,TemperatureF,Dew PointF,Humidity,Sea Level PressureIn,VisibilityMPH,Wind Direction,Wind SpeedMPH,Gust SpeedMPH,PrecipitationIn,Events,Conditions,WindDirDegrees,DateUTC
12:54 AM,25.0,15.1,66,30.15,10.0,North,12.7,-,N/A,,Mostly Cloudy,350,2013-03-03 05:54:00
1:54 AM,24.1,16.0,71,30.15,10.0,NW,6.9,-,N/A,,Mostly Cloudy,320,2013-03-03 06:54:00
2:54 AM,23.0,18.0,81,30.14,10.0,WNW,10.4,-,N/A,,Overcast,290,2013-03-03 07:54:00
3:54 AM,21.0,16.0,81,30.13,10.0,NW,4.6,-,N/A,,Mostly Cloudy,310,2013-03-03 08:54:00
4:54 AM,19.0,15.1,85,30.13,10.0,Calm,Calm,-,N/A,,Clear,0,2013-03-03 09:54:00
5:54 AM,17.1,14.0,88,30.14,10.0,West,3.5,-,N/A,,Clear,280,2013-03-03 10:54:00
6:54 AM,18.0,14.0,84,30.14,10.0,Calm,Calm,-,N/A,,Clear,0,2013-03-03 11:54:00
7:54 AM,18.0,14.0,84,30.16,10.0,NW,5.8,-,N/A,,Clear,310,2013-03-03 12:54:00
8:54 AM,21.9,16.0,78,30.17,10.0,NW,6.9,-,N/A,,Clear,310,2013-03-03 13:54:00
9:54 AM,26.1,16.0,66,30.16,10.0,NNW,8.1,-,N/A,,Partly Cloudy,330,2013-03-03 14:54:00
10:54 AM,28.0,18.0,66,30.15,10.0,NW,6.9,-,N/A,,Clear,310,2013-03-03 15:54:00
11:54 AM,30.0,18.0,61,30.14,10.0,NNW,6.9,-,N/A,,Partly Cloudy,330,2013-03-03 16:54:00
12:54 PM,30.0,16.0,56,30.13,10.0,NW,6.9,-,N/A,,Mostly Cloudy,310,2013-03-03 17:54:00
1:54 PM,32.0,16.0,52,30.11,10.0,Calm,Calm,-,N/A,,Mostly Cloudy,0,2013-03-03 18:54:00
2:54 PM,30.9,14.0,50,30.10,10.0,West,4.6,-,N/A,,Mostly Cloudy,280,2013-03-03 19:54:00
3:54 PM,34.0,16.0,48,30.09,10.0,West,6.9,-,N/A,,Mostly Cloudy,270,2013-03-03 20:54:00
4:54 PM,33.1,15.1,48,30.09,10.0,NNW,9.2,-,N/A,,Scattered Clouds,340,2013-03-03 21:54:00
5:54 PM,32.0,16.0,52,30.10,10.0,North,9.2,-,N/A,,Clear,350,2013-03-03 22:54:00
6:54 PM,28.0,16.0,61,30.11,10.0,NW,4.6,-,N/A,,Clear,310,2013-03-03 23:54:00
7:54 PM,27.0,16.0,63,30.11,10.0,NNW,3.5,-,N/A,,Clear,330,2013-03-04 00:54:00
8:54 PM,25.0,16.0,69,30.11,10.0,NNW,3.5,-,N/A,,Clear,340,2013-03-04 01:54:00
9:54 PM,23.0,17.1,78,30.12,10.0,Calm,Calm,-,N/A,,Clear,0,2013-03-04 02:54:00
10:54 PM,23.0,17.1,78,30.12,10.0,Calm,Calm,-,N/A,,Clear,0,2013-03-04 03:54:00
11:54 PM,21.0,17.1,85,30.13,10.0,Calm,Calm,-,N/A,,Clear,0,2013-03-04 04:54:00